Home > Weather > Al Ain > Past weeks

Flag for United Arab Emirates Past Weather in Al Ain, Abu Dhabi, United Arab Emirates — Yesterday and Last 2 Weeks

Now
91 °F

Clear.


Feels Like: 89 °F
Forecast: 83 / 109 °F
Wind: 12 mph from Southeast

Location: Al Ain International Airport

Current Time: Aug 25, 2016 at 5:18:45 AM

Latest Report: Aug 25, 2016 at 5:00 AM


Visibility: 10 mi

Pressure: 29.65 "Hg

Humidity: 26%

Dew Point: 52 °F

Location of Al AinLocation

Past Weather in Al Ain — Graph

°F

Al Ain Temperature Yesterday

Maximum temperature yesterday: 109 °F (at 3:00 PM)
Minimum temperature yesterday: 91 °F (at 7:00 AM)
Average temperature yesterday: 101 °F

High & Low Weather Summary for the Past Weeks

 TemperatureHumidityPressure
High115 °F (Aug 11, 2:00 PM)66% (Aug 20, 7:00 AM)29.71 "Hg (Aug 20, 7:00 AM)
Low82 °F (Aug 20, 6:00 AM)7% (Aug 22, 1:00 PM)29.42 "Hg (Aug 17, 3:00 PM)
Average101 °F25%29.58 "Hg
* Reported Aug 10 4:00 AM — Aug 25 4:00 AM, Al Ain, Weather by CustomWeather, © 2016

Note: Actual official high and low records may vary slightly from our data, if they occured in-between our weather recording intervals... More about our weather records

Advertising

Al Ain Weather History for the Previous 24 Hours

Scroll right to see more
 ConditionsComfort  
Time TempWeatherWind HumidityBarometerVisibility
4:00 AM
Thu, Aug 25
91 °FClear.6 mph21%29.62 "Hg10 mi
3:00 AM93 °FClear.7 mph20%29.62 "Hg10 mi
2:00 AM95 °FClear.3 mph19%29.62 "Hg10 mi
1:00 AM95 °FClear.3 mph19%29.62 "Hg10 mi
12:00 AM97 °FClear.5 mph18%29.62 "Hg10 mi
11:00 PM
Wed, Aug 24
97 °FClear.5 mph18%29.62 "Hg10 mi
10:00 PM100 °FClear.6 mph16%29.62 "Hg10 mi
9:00 PM102 °FClear.8 mph15%29.62 "Hg10 mi
8:00 PM104 °FClear.3 mph14%29.59 "Hg10 mi
7:00 PM106 °FClear.10 mph13%29.59 "Hg5 mi
6:00 PM106 °FPassing clouds.17 mph13%29.59 "Hg2 mi
5:00 PM108 °FPassing clouds.16 mph14%29.56 "HgN/A
4:00 PM109 °FPassing clouds.5 mph10%29.56 "HgN/A
3:00 PM109 °FPassing clouds.6 mph11%29.56 "HgN/A
2:00 PM108 °FPassing clouds.8 mph15%29.59 "HgN/A
1:00 PM108 °FPassing clouds.8 mph17%29.62 "HgN/A
12:00 PM106 °FPassing clouds.12 mph18%29.62 "HgN/A
11:00 AM104 °FSunny.13 mph20%29.65 "Hg10 mi
10:00 AM100 °FSunny.14 mph22%29.65 "Hg10 mi
9:00 AM99 °FSunny.15 mph25%29.68 "Hg10 mi
8:00 AM95 °FSunny.13 mph26%29.65 "Hg10 mi
7:00 AM91 °FSunny.13 mph30%29.65 "Hg10 mi
6:00 AM93 °FSunny.12 mph23%29.65 "Hg10 mi
5:00 AM93 °FClear.12 mph20%29.62 "Hg10 mi
Weather by CustomWeather, © 2016

See weather overviewHow to use our weather pages